Location: Unspecified
(0.0000°N, 0.0000°E)
Time: 18:10:10
(UTC+00:00)

Vanguard 1 - Visible Passes

Search period start: 19 October 2017 00:00
Search period end: 29 October 2017 00:00
Orbit: 650 x 3834 km, 34.3° (Epoch: 18 October)

Date Brightness Start Highest point End Pass type
(mag) Time Alt. Az. Time Alt. Az. Time Alt. Az.
19 Oct 14.0 00:45:10 11° NNE 00:45:10 11° NNE 00:45:52 10° NNE visible
19 Oct 13.7 02:57:53 16° NNW 03:05:08 18° N 03:19:20 10° NE visible
19 Oct 13.9 05:19:34 10° NNW 05:39:11 32° NNE 05:55:50 10° E visible
19 Oct 11.0 20:00:48 10° SW 20:03:52 35° SSW 20:03:52 35° SSW visible
20 Oct 14.0 01:04:58 13° NNE 01:04:58 13° NNE 01:07:42 10° NNE visible
20 Oct 13.7 03:17:40 13° NNW 03:29:06 20° NNE 03:44:15 10° NE visible
20 Oct 11.4 20:21:30 10° SW 20:23:59 31° SW 20:23:59 31° SW visible
21 Oct 13.9 01:24:47 14° NNE 01:24:47 14° NNE 01:30:13 10° NNE visible
21 Oct 13.8 03:37:29 10° NNW 03:52:52 23° NNE 04:09:15 10° ENE visible
21 Oct 11.4 18:25:14 10° S 18:28:14 16° SE 18:31:21 11° ESE visible
21 Oct 12.0 20:42:31 10° WSW 20:44:05 21° WSW 20:44:05 21° WSW visible
22 Oct 13.8 01:44:37 16° N 01:44:37 16° N 01:53:48 10° NE visible
22 Oct 13.8 03:58:57 10° NNW 04:16:18 27° NNE 04:33:51 10° ENE visible
22 Oct 10.7 18:44:57 10° SSW 18:49:05 29° SE 18:51:29 22° E visible
22 Oct 12.6 21:03:54 10° W 21:04:13 12° W 21:04:13 12° W visible
23 Oct 13.7 02:04:29 16° N 02:06:18 17° N 02:18:35 10° NE visible
23 Oct 13.8 04:20:14 10° NNW 04:39:21 33° NNE 04:57:50 10° E visible
23 Oct 10.0 19:05:18 10° SW 19:09:55 52° SE 19:11:37 40° E visible
24 Oct 13.7 02:24:23 17° N 02:30:00 19° NNE 02:44:05 10° NE visible
24 Oct 13.7 04:41:23 10° NNW 05:02:03 41° NNE 05:21:09 10° E visible
24 Oct 9.7 19:26:03 10° SW 19:30:52 89° NNW 19:31:47 66° NE visible
25 Oct 13.6 02:44:20 17° N 02:53:28 22° NNE 03:09:38 10° ENE visible
25 Oct 13.6 05:02:30 10° NW 05:24:26 50° NE 05:43:52 10° ESE visible
25 Oct 10.3 19:47:11 10° WSW 19:51:56 52° NW 19:51:56 52° NW visible
26 Oct 13.6 03:04:19 16° NNW 03:16:36 27° NNE 03:34:39 10° ENE visible
26 Oct 11.3 20:08:43 10° W 20:12:06 29° NW 20:12:06 29° NW visible
27 Oct 13.9 01:11:36 13° NNE 01:11:36 13° NNE 01:16:53 10° NE visible
27 Oct 13.6 03:24:20 15° NNW 03:39:23 33° NNE 03:58:56 10° E visible
27 Oct 9.6 18:09:36 10° SW 18:13:55 55° SE 18:19:23 10° ENE visible
27 Oct 12.1 20:30:46 10° WNW 20:32:15 16° WNW 20:32:15 16° WNW visible
28 Oct 13.7 01:31:40 17° NNE 01:31:40 17° NNE 01:43:04 10° NE visible
28 Oct 13.6 03:44:24 14° NNW 04:01:50 41° NE 04:22:29 10° E visible
28 Oct 9.5 18:30:28 10° WSW 18:34:53 77° NW 18:39:39 15° NE visible
